Hagerstown, MD

6:23 PM EST on November 23, 2017 (GMT -0500)
Hagerstown Regional-Henson

Weather History for KHGR - October, 2012

Change the Weather History Date:

Friday, October 19, 2012

  Actual Average Record
Temperature  
Mean Temperature 61 °F 54 °F  
Max Temperature 65 °F 64 °F 85 °F (2016)
Min Temperature 56 °F 43 °F 30 °F (2015)
Degree Days  
Heating Degree Days 4 11  
Month to date heating degree days 181 168  
Since 1 July heating degree days 247 242  
Cooling Degree Days 0 0  
Month to date cooling degree days 10 9  
Year to date cooling degree days 1275 968  
Growing Degree Days 10 (Base 50)    
Moisture  
Dew Point 56 °F    
Average Humidity 89    
Maximum Humidity 100    
Minimum Humidity 78    
Precipitation  
Precipitation 0.08 in 0.09 in 0.28 in (2007)
Month to date precipitation 1.52 1.95  
Year to date precipitation 29.26 32.25  
Sea Level Pressure  
Sea Level Pressure 29.75 in    
Wind  
Wind Speed 5 mph (North)    
Max Wind Speed 14 mph    
Max Gust Speed 18 mph    
Visibility 4 miles    
Events Fog , Rain    
T = Trace of Precipitation, MM = Missing Value Source: NWS Daily Summary

Daily Weather History Graph

Daily Weather History Graph

Search for Another Location

Airport or City:

Trip Planner

Search our weather history database for the weather conditions in past years. The results will help you decide how hot, cold, wet, or windy it might be!

Date:

Astronomy

Oct. 19, 2012 Rise Set
Actual Time 7:25 AM EDT 6:25 PM EDT
Civil Twilight 6:58 AM EDT 6:52 PM EDT
Nautical Twilight 6:27 AM EDT 7:23 PM EDT
Astronomical Twilight 5:55 AM EDT 7:55 PM EDT
Moon 12:06 PM EDT (10/19) 10:01 PM EDT (10/19)
Length of Visible Light 11h 54m
Length of Day
10h 59m
Waxing Crescent, 23% of the Moon is Illuminated
Oct 19
Waxing Crescent
Oct 21
First Quarter
Oct 29
Full
Nov 6
Last Quarter
Nov 13
New

Hourly Weather History & Observations

Time (EDT) Temp. Dew Point Humidity Pressure Visibility Wind Dir Wind Speed Gust Speed Precip Events Conditions
12:17 AM 57.2 °F 57.2 °F 100% 29.83 in 9.0 mi North 8.1 mph - 0.01 in   Overcast
12:53 AM 57.0 °F 55.9 °F 96% 29.83 in 5.0 mi NNE 8.1 mph - 0.08 in Rain Rain
1:06 AM 57.2 °F 55.4 °F 94% 29.81 in 2.5 mi NE 4.6 mph - 0.08 in Rain Heavy Rain
1:08 AM 57.2 °F 55.4 °F 94% 29.81 in 3.0 mi NNE 5.8 mph - 0.08 in Rain Rain
1:53 AM 57.0 °F 55.9 °F 96% 29.83 in 9.0 mi East 4.6 mph - 0.11 in Rain Light Rain
2:20 AM 57.2 °F 57.2 °F 100% 29.79 in 6.0 mi NNE 4.6 mph - 0.00 in   Overcast
2:28 AM 57.2 °F 55.4 °F 94% 29.78 in 7.0 mi NE 4.6 mph - 0.00 in   Overcast
2:53 AM 57.0 °F 55.9 °F 96% 29.81 in 8.0 mi Calm Calm - 0.00 in   Mostly Cloudy
3:53 AM 57.0 °F 55.9 °F 96% 29.80 in 6.0 mi Calm Calm - N/A   Overcast
4:08 AM 57.2 °F 55.4 °F 94% 29.77 in 2.5 mi WNW 6.9 mph - N/A   Overcast
4:11 AM 55.4 °F 55.4 °F 100% 29.77 in 0.8 mi NNW 10.4 mph - N/A   Overcast
4:15 AM 55.4 °F 55.4 °F 100% 29.76 in 0.2 mi NNW 10.4 mph - N/A Fog Fog
4:22 AM 55.4 °F 55.4 °F 100% 29.77 in 0.2 mi NNW 4.6 mph - N/A Fog Fog
4:30 AM 55.4 °F 55.4 °F 100% 29.77 in 0.2 mi NNW 12.7 mph 16.1 mph N/A Fog Fog
4:53 AM 55.9 °F 55.9 °F 100% 29.78 in 0.2 mi North 10.4 mph - N/A Fog Fog
5:10 AM 55.4 °F 55.4 °F 100% 29.76 in 0.8 mi NE 4.6 mph - N/A   Mist
5:15 AM 55.4 °F 55.4 °F 100% 29.76 in 2.0 mi NNE 5.8 mph - N/A   Overcast
5:23 AM 55.4 °F 55.4 °F 100% 29.76 in 4.0 mi NW 5.8 mph - N/A   Overcast
5:36 AM 55.4 °F 55.4 °F 100% 29.77 in 1.8 mi NW 6.9 mph - N/A   Overcast
5:53 AM 55.9 °F 55.9 °F 100% 29.78 in 1.5 mi North 8.1 mph - N/A   Overcast
6:08 AM 55.4 °F 55.4 °F 100% 29.76 in 2.5 mi NW 3.5 mph - N/A   Overcast
6:23 AM 55.4 °F 55.4 °F 100% 29.76 in 1.2 mi NW 3.5 mph - N/A   Overcast
6:38 AM 55.4 °F 55.4 °F 100% 29.76 in 0.8 mi NW 8.1 mph - N/A   Mist
6:50 AM 55.4 °F 55.4 °F 100% 29.76 in 1.2 mi NNW 12.7 mph 18.4 mph N/A   Overcast
6:53 AM 55.9 °F 55.9 °F 100% 29.79 in 1.2 mi NNW 10.4 mph 18.4 mph N/A   Overcast
7:04 AM 55.4 °F 55.4 °F 100% 29.76 in 2.0 mi North 8.1 mph 16.1 mph N/A   Overcast
7:21 AM 55.4 °F 55.4 °F 100% 29.77 in 3.0 mi North 8.1 mph - N/A   Overcast
7:32 AM 55.4 °F 55.4 °F 100% 29.75 in 2.0 mi NNE 8.1 mph - N/A   Overcast
7:53 AM 55.9 °F 55.9 °F 100% 29.78 in 2.0 mi North 6.9 mph - N/A   Overcast
8:29 AM 55.4 °F 55.4 °F 100% 29.76 in 1.5 mi North 3.5 mph - N/A   Overcast
8:53 AM 57.0 °F 55.9 °F 96% 29.79 in 1.5 mi North 3.5 mph - N/A   Overcast
9:00 AM 57.2 °F 55.4 °F 94% 29.76 in 2.0 mi NNE 3.5 mph - N/A   Overcast
9:53 AM 57.9 °F 57.0 °F 97% 29.78 in 2.0 mi Calm Calm - N/A   Overcast
10:00 AM 57.2 °F 57.2 °F 100% 29.76 in 4.0 mi Calm Calm - N/A   Overcast
10:30 AM 57.2 °F 57.2 °F 100% 29.74 in 2.0 mi Calm Calm - N/A   Overcast
10:53 AM 57.9 °F 57.0 °F 97% 29.77 in 2.0 mi West 4.6 mph - N/A   Overcast
11:53 AM 57.0 °F 57.0 °F 100% 29.76 in 2.0 mi WNW 4.6 mph - N/A   Overcast
12:00 PM 57.2 °F 57.2 °F 100% 29.73 in 4.0 mi WNW 3.5 mph - N/A   Overcast
12:38 PM 60.8 °F 57.2 °F 88% 29.72 in 6.0 mi Calm Calm - N/A   Overcast
12:53 PM 59.0 °F 57.0 °F 93% 29.75 in 7.0 mi ESE 3.5 mph - N/A   Overcast
1:53 PM 62.1 °F 57.9 °F 86% 29.72 in 8.0 mi SE 5.8 mph - N/A   Overcast
2:07 PM 60.8 °F 57.2 °F 88% 29.69 in 9.0 mi SSE 3.5 mph - N/A   Overcast
2:53 PM 63.0 °F 57.0 °F 81% 29.70 in 10.0 mi Variable 4.6 mph - N/A   Mostly Cloudy
3:49 PM 64.4 °F 57.2 °F 77% 29.66 in 10.0 mi SSW 3.5 mph - N/A   Mostly Cloudy
3:53 PM 64.0 °F 57.0 °F 78% 29.68 in 10.0 mi Variable 3.5 mph - N/A   Mostly Cloudy
4:53 PM 64.0 °F 57.0 °F 78% 29.65 in 10.0 mi ESE 4.6 mph - N/A   Mostly Cloudy
5:53 PM 63.0 °F 57.9 °F 84% 29.65 in 10.0 mi Variable 3.5 mph - N/A   Clear
6:53 PM 62.1 °F 57.0 °F 84% 29.65 in 10.0 mi Calm Calm - N/A   Clear
7:53 PM 59.0 °F 55.9 °F 90% 29.66 in 9.0 mi Calm Calm - N/A   Clear
8:53 PM 57.9 °F 55.9 °F 93% 29.67 in 7.0 mi ESE 3.5 mph - N/A   Clear
9:53 PM 55.9 °F 55.0 °F 97% 29.68 in 5.0 mi Calm Calm - N/A   Clear
10:53 PM 57.0 °F 55.9 °F 96% 29.69 in 7.0 mi SSE 4.6 mph - N/A   Clear
11:53 PM 54.0 °F 52.0 °F 93% 29.70 in 10.0 mi SSE 4.6 mph - N/A   Clear